This demonstration page uses our WeatherBlox Daily Observations layout. Learn more.

Left ArrowRight Arrow

Hourly Observations for January 27, 2022

Temp ( °F °C ) Dew Point ( °F °C ) Humidity (%) Winds ( mph kmh ) Pressure ( in mb ) Visibility ( mi km ) Precip ( " mm )
12:28 am 00:28 Cloudy with Mist and Fog 30 -1.1 28 -2.2 92 92 Calm 30.34 1027 4 6 0.00 0.00
12:53 am 00:53 Cloudy with Mist and Fog 29 -1.7 27 -2.8 92 92 S 6 9 30.24 1024 4 6 0.00 0.00
1:53 am 01:53 Cloudy with Mist and Fog 29 -1.7 28 -2.2 96 96 Calm 30.24 1024 3 5 0.00 0.00
2:23 am 02:23 Cloudy with Mist and Fog 29 -1.7 27 -2.8 92 92 SW 5 7 30.34 1028 3 4 0.00 0.00
2:53 am 02:53 Cloudy with Mist and Fog 29 -1.7 28 -2.2 96 96 Calm 30.24 1024 3 4 0.00 0.00
3:01 am 03:01 Cloudy with Mist and Fog 29 -1.7 28 -2.2 96 96 SW 6 9 30.34 1028 3 5 0.00 0.00
3:14 am 03:14 Cloudy with Mist and Fog 29 -1.7 27 -2.8 92 92 W 3 6 30.34 1028 2 3 0.00 0.00
3:41 am 03:41 Cloudy with Mist and Fog 29 -1.7 27 -2.8 92 92 WNW 5 7 30.34 1028 1 2 0.00 0.00
3:53 am 03:53 Cloudy with Mist and Fog 29 -1.7 27 -2.8 92 92 N 3 6 30.23 1024 1 1 0.00 0.00
4:06 am 04:06 Cloudy with Mist and Fog 29 -1.7 28 -2.2 96 96 Calm 30.33 1027 1 2 0.00 0.00
4:45 am 04:45 Cloudy with Mist and Fog 29 -1.7 28 -2.2 96 96 Calm 30.32 1027 1 1 0.00 0.00
4:53 am 04:53 Cloudy with Freezing Fog 29 -1.7 28 -2.2 96 96 NNE 3 6 30.22 1023 1 1 0.00 0.00
5:28 am 05:28 Mostly Cloudy with Freezing Fog 28 -2.2 27 -2.8 96 96 Calm 30.32 1027 0 0 0.00 0.00
5:53 am 05:53 Mostly Cloudy with Freezing Fog 28 -2.2 26 -3.3 92 92 WNW 3 6 30.20 1023 0 0 0.00 0.00
6:41 am 06:41 Mostly Cloudy with Freezing Fog 28 -2.2 27 -2.8 96 96 VRB 3 6 30.34 1027 1 1 0.00 0.00
6:48 am 06:48 Mostly Cloudy with Freezing Fog 28 -2 27 -3 93 93 SSW 3 6 30.34 1027 0 0 0.00 0.00
6:53 am 06:53 Mostly Cloudy with Freezing Fog 28 -2.2 27 -2.8 96 96 VRB 3 6 30.23 1024 1 1 0.00 0.00
7:45 am 07:45 Mostly Cloudy with Freezing Fog 28 -2.2 27 -2.8 96 96 Calm 30.35 1028 0 0 0.00 0.00
7:53 am 07:53 Mostly Cloudy with Freezing Fog 28 -2.2 27 -2.8 96 96 S 3 6 30.24 1024 1 1 0.00 0.00
8:27 am 08:27 Mostly Cloudy with Freezing Fog 29 -1.7 27 -2.8 92 92 WSW 5 7 30.35 1028 0 0 0.00 0.00
8:43 am 08:43 Cloudy with Mist and Fog 28 -2.2 27 -2.8 96 96 W 3 6 30.36 1028 1 2 0.00 0.00
8:51 am 08:51 Cloudy with Freezing Fog 28 -2 28 -2 100 100 NW 3 6 30.37 1028 1 1 0.00 0.00
8:53 am 08:53 Cloudy with Freezing Fog 29 -1.7 28 -2.2 96 96 NW 3 6 30.26 1025 1 1 0.00 0.00
9:26 am 09:26 Cloudy with Mist and Fog 28 -2.2 27 -2.8 96 96 N 6 9 30.36 1028 1 2 0.00 0.00
9:39 am 09:39 Cloudy with Mist and Fog 29 -1.7 27 -2.8 92 92 NNW 5 7 30.36 1028 2 3 0.00 0.00
9:53 am 09:53 Cloudy with Mist and Fog 29 -1.7 27 -2.8 92 92 NNW 8 13 30.27 1025 3 5 0.00 0.00
10:07 am 10:07 Cloudy with Mist and Fog 29 -1.7 27 -2.8 92 92 VRB 3 6 30.38 1029 3 5 0.00 0.00
10:53 am 10:53 Cloudy with Mist and Fog 30 -1.1 27 -2.8 88 88 N 5 7 30.27 1025 4 6 0.00 0.00
11:36 am 11:36 Partly Cloudy with Mist and Fog 31 -0.6 28 -2.2 89 89 WNW 3 6 30.35 1028 4 6 0.00 0.00
11:53 am 11:53 Hazy 34 1.1 29 -1.7 82 82 WNW 5 7 30.25 1025 5 8 0.00 0.00
12:53 pm 12:53 Sunny 42 5.6 28 -2.2 58 58 SE 3 6 30.20 1023 8 13 0.00 0.00
1:53 pm 13:53 Sunny 47 8.3 27 -2.8 46 46 Calm 30.15 1021 10 16 0.00 0.00
2:53 pm 14:53 Sunny 51 10.6 27 -2.8 39 39 VRB 3 6 30.13 1020 10 16 0.00 0.00
3:53 pm 15:53 Sunny 54 12.2 25 -3.9 33 33 W 3 6 30.11 1020 10 16 0.00 0.00
4:53 pm 16:53 Sunny 55 12.8 22 -5.6 28 28 SE 3 6 30.11 1020 10 16 0.00 0.00
5:53 pm 17:53 Sunny 55 12.8 21 -6.1 26 26 ENE 6 9 30.14 1021 10 16 0.00 0.00
6:53 pm 18:53 Clear 50 10 21 -6.1 32 32 ENE 9 15 30.18 1022 10 16 0.00 0.00
7:53 pm 19:53 Clear 44 6.7 28 -2.2 53 53 SSE 7 11 30.24 1024 10 16 0.00 0.00
8:53 pm 20:53 Clear 41 5 30 -1.1 65 65 VRB 6 9 30.29 1026 8 13 0.00 0.00
9:53 pm 21:53 Clear 40 4.4 29 -1.7 65 65 E 7 11 30.35 1028 10 16 0.00 0.00
10:53 pm 22:53 Clear 40 4.4 24 -4.4 53 53 ENE 15 24 30.40 1030 10 16 0.00 0.00
11:53 pm 23:53 Clear 38 3.3 24 -4.4 57 57 NE 16 26 30.44 1031 10 16 0.00 0.00

Powered by AerisWeather